Change the Weather History Date:

Wednesday, June 12, 2013

  Actual Average Record
Temperature  
Mean Temperature 64 °F 61 °F  
Max Temperature 78 °F 75 °F 98 °F (1979)
Min Temperature 49 °F 48 °F 36 °F (1969)
Degree Days  
Heating Degree Days 1 5  
Month to date heating degree days 60 71  
Since 1 June heating degree days 60 71  
Since 1 July heating degree days 7965 8159  
Cooling Degree Days 0 1  
Month to date cooling degree days 1 12  
Year to date cooling degree days 8 23  
Since 1 June cooling degree days 1 12  
Growing Degree Days 14 (Base 50)    
Moisture  
Dew Point 54 °F    
Average Humidity 68    
Maximum Humidity 93    
Minimum Humidity 43    
Precipitation  
Precipitation 0.08 in 0.08 in 2.22 in (1937)
Month to date precipitation 2.44 0.91  
Year to date precipitation 9.76 4.64  
Snow  
Snow 0.00 in 0.10 in 0.00 in (1999)
Month to date snowfall 0.0 0.5  
Since 1 June snowfall 0.0 0.5  
Since 1 July snowfall 50.6 39.5  
Snow Depth 0.00 in    
Sea Level Pressure  
Sea Level Pressure 29.95 in    
Wind  
Wind Speed 7 mph (ENE)    
Max Wind Speed 20 mph    
Max Gust Speed 25 mph    
Visibility 10 miles    
Events Rain , Thunderstorm    
T = Trace of Precipitation, MM = Missing Value Source: NWS Daily Summary

Daily Weather History Graph

Daily Weather History Graph

Search for Another Location

Airport or City:

Trip Planner

Search our weather history database for the weather conditions in past years. The results will help you decide how hot, cold, wet, or windy it might be!

Date:

Astronomy

Jun. 12, 2013 Rise Set
Actual Time 5:16 AM MDT 9:21 PM MDT
Civil Twilight 4:34 AM MDT 10:03 PM MDT
Nautical Twilight 3:36 AM MDT 11:02 PM MDT
Astronomical Twilight 1:47 AM MDT 12:53 AM MDT
Moon 9:14 AM MDT (6/12) 11:41 PM MDT (6/12)
Length of Visible Light 17h 28m
Length of Day
16h 04m
Waxing Crescent, 14% of the Moon is Illuminated
Jun 12
Waxing Crescent
Jun 16
First Quarter
Jun 23
Full
Jun 29
Last Quarter
Jul 8
New

Hourly Weather History & Observations

Time (MDT) Temp. Dew Point Humidity Pressure Visibility Wind Dir Wind Speed Gust Speed Precip Events Conditions
12:53 AM 57.0 °F 51.1 °F 81% 29.99 in 10.0 mi East 4.6 mph - 0.00 in   Overcast
1:53 AM 57.0 °F 51.1 °F 81% 30.00 in 10.0 mi NE 3.5 mph - N/A   Overcast
2:53 AM 57.0 °F 52.0 °F 83% 30.01 in 10.0 mi East 3.5 mph - N/A   Overcast
3:53 AM 55.0 °F 51.1 °F 86% 30.01 in 10.0 mi Calm Calm - N/A   Mostly Cloudy
4:53 AM 53.1 °F 48.9 °F 86% 30.02 in 10.0 mi Calm Calm - N/A   Clear
5:53 AM 50.0 °F 48.9 °F 96% 30.03 in 10.0 mi WNW 4.6 mph - N/A   Clear
6:53 AM 55.9 °F 51.1 °F 84% 30.02 in 10.0 mi Calm Calm - N/A   Clear
7:53 AM 60.1 °F 53.1 °F 78% 29.99 in 10.0 mi ENE 6.9 mph - N/A   Clear
8:53 AM 64.0 °F 54.0 °F 70% 29.99 in 10.0 mi NNE 4.6 mph - N/A   Clear
9:53 AM 66.0 °F 54.0 °F 65% 29.98 in 10.0 mi ENE 9.2 mph - N/A   Partly Cloudy
10:53 AM 70.0 °F 55.0 °F 59% 29.95 in 10.0 mi NE 10.4 mph - N/A   Partly Cloudy
11:53 AM 71.1 °F 54.0 °F 55% 29.94 in 10.0 mi ESE 10.4 mph - N/A   Mostly Cloudy
12:53 PM 72.0 °F 55.0 °F 55% 29.94 in 10.0 mi ESE 11.5 mph - N/A   Overcast
1:53 PM 75.9 °F 54.0 °F 46% 29.90 in 10.0 mi East 13.8 mph - N/A   Partly Cloudy
2:53 PM 77.0 °F 55.0 °F 47% 29.88 in 10.0 mi ESE 12.7 mph 21.9 mph N/A   Partly Cloudy
3:53 PM 77.0 °F 54.0 °F 45% 29.87 in 10.0 mi East 13.8 mph 20.7 mph N/A   Clear
4:53 PM 75.9 °F 54.0 °F 46% 29.86 in 10.0 mi East 18.4 mph - N/A   Clear
5:53 PM 73.0 °F 55.9 °F 55% 29.87 in 10.0 mi East 15.0 mph - N/A   Clear
6:53 PM 71.1 °F 55.0 °F 57% 29.90 in 10.0 mi SE 8.1 mph - N/A   Partly Cloudy
7:16 PM 69.8 °F 55.4 °F 60% 29.94 in 4.0 mi Variable 4.6 mph - 0.04 in Rain , Thunderstorm Heavy Thunderstorms and Rain
7:53 PM 66.0 °F 59.0 °F 78% 29.93 in 10.0 mi ENE 5.8 mph - 0.06 in Rain , Thunderstorm Light Rain
8:08 PM 66.2 °F 60.8 °F 83% 29.93 in 10.0 mi NNE 4.6 mph - 0.00 in Rain Light Rain
8:53 PM 64.9 °F 60.1 °F 84% 29.90 in 10.0 mi NE 10.4 mph - 0.00 in   Partly Cloudy
9:53 PM 63.0 °F 57.0 °F 81% 29.89 in 10.0 mi ENE 8.1 mph - N/A   Mostly Cloudy
10:53 PM 62.1 °F 57.0 °F 84% 29.91 in 10.0 mi Calm Calm - N/A   Clear
11:53 PM 60.1 °F 55.9 °F 86% 29.94 in 10.0 mi NW 3.5 mph - N/A   Scattered Clouds